User: anonymous   Login
Location: Unspecified
(0.0000°N, 0.0000°E)
Time: 21:58:43
(UTC+00:00)
Language:

ETS 8 - Orbit

View from above orbital plane
View from above orbital plane
View from above satellite
View from above satellite

Ground track
Ground track

The orbit data is extracted from the following two-line orbital elements,

1 29656U 06059A   15215.87979649 -.00000261  00000-0  00000+0 0  9990
2 29656 004.3150 063.5500 0006091 062.2383 288.7699 01.00272223 31622
Epoch (UTC): 03 August 2015 21:06:54
Eccentricity: 0.0006091
inclination: 4.3150°
perigee height: 35760 km
apogee height: 35812 km
right ascension of ascending node: 63.5500°
argument of perigee: 62.2383°
revolutions per day: 1.00272223
mean anomaly at epoch: 288.7699°
orbit number at epoch: 3162

The dashed part of the orbit path shows where the satellite is in the earth's shadow,  

DLR